Weather History for Slayton, MN

Change the Weather History Date:

Thursday, November 29, 2012

  Actual Average (KOTG) Record (KOTG)
Temperature  
Mean Temperature 28 °F -  
Max Temperature 38 °F 34 °F 60 °F (1998)
Min Temperature 18 °F 20 °F -9 °F (1985)
Degree Days  
Heating Degree Days 37    
Moisture  
Dew Point 22 °F    
Average Humidity 75    
Maximum Humidity 93    
Minimum Humidity 57    
Precipitation  
Precipitation 0.00 in - - ()
Sea Level Pressure  
Sea Level Pressure 30.01 in    
Wind  
Wind Speed 6 mph (NNE)    
Max Wind Speed 14 mph    
Max Gust Speed -    
Visibility 9 miles    
Events      
Averages and records for this station are not official NWS values.
T = Trace of Precipitation, MM = Missing Value Source: NWS Daily Summary

Daily Weather History Graph

Daily Weather History Graph

Search for Another Location

Airport:

Trip Planner

Search our weather history database for the weather conditions in past years. The results will help you decide how hot, cold, wet, or windy it might be!

Date:

Astronomy

Nov. 29, 2012 Rise Set
Actual Time 7:36 AM CST 4:46 PM CST
Civil Twilight 7:03 AM CST 5:19 PM CST
Nautical Twilight 6:27 AM CST 5:55 PM CST
Astronomical Twilight 5:53 AM CST 6:29 PM CST
Moon 5:50 PM CST (11/29) 8:23 AM CST (11/29)
Length of Visible Light 10h 15m
Length of Day
9h 10m
Full, 99% of the Moon is Illuminated
Nov 29
Full
Dec 6
Last Quarter
Dec 13
New
Dec 19
First Quarter
Dec 28
Full

Hourly Weather History & Observations

Time (CST) Temp. Windchill Dew Point Humidity Pressure Visibility Wind Dir Wind Speed Gust Speed Precip Events Conditions
12:34 AM 24.4 °F 17.5 °F 19.4 °F 81% 30.02 in 10.0 mi South 5.8 mph - N/A   Clear
12:55 AM 23.9 °F 16.8 °F 19.0 °F 82% 30.02 in 10.0 mi South 5.8 mph - N/A   Clear
1:15 AM 22.6 °F - 18.3 °F 83% 30.02 in 10.0 mi Calm Calm - N/A   Clear
1:35 AM 25.0 °F 19.3 °F 20.3 °F 82% 30.02 in 10.0 mi SSW 4.6 mph - N/A   Clear
1:55 AM 25.5 °F 18.7 °F 20.5 °F 81% 30.02 in 10.0 mi SSW 5.8 mph - N/A   Clear
2:15 AM 25.5 °F 21.3 °F 20.3 °F 81% 30.02 in 10.0 mi SW 3.5 mph - N/A   Clear
2:35 AM 25.0 °F - 20.8 °F 84% 30.02 in 10.0 mi Calm Calm - N/A   Clear
2:55 AM 26.8 °F - 22.5 °F 84% 30.02 in 10.0 mi Calm Calm - N/A   Clear
3:15 AM 25.9 °F - 21.4 °F 83% 30.02 in 10.0 mi Calm Calm - N/A   Clear
3:35 AM 21.2 °F - 18.0 °F 87% 30.02 in 10.0 mi Calm Calm - N/A   Clear
3:55 AM 22.8 °F - 19.4 °F 87% 30.01 in 10.0 mi Calm Calm - N/A   Clear
4:15 AM 21.7 °F - 18.5 °F 87% 30.00 in 10.0 mi Calm Calm - N/A   Clear
4:35 AM 22.1 °F - 19.0 °F 88% 30.00 in 10.0 mi Calm Calm - N/A   Clear
4:55 AM 21.9 °F 17.2 °F 19.2 °F 89% 30.00 in 10.0 mi NNW 3.5 mph - N/A   Clear
5:15 AM 19.4 °F 14.3 °F 17.1 °F 91% 30.00 in 7.0 mi NW 3.5 mph - N/A   Clear
5:35 AM 19.4 °F 10.4 °F 17.4 °F 92% 30.01 in 7.0 mi North 6.9 mph - N/A   Clear
5:55 AM 18.1 °F 11.3 °F 16.2 °F 92% 30.02 in 7.0 mi NW 4.6 mph - N/A   Clear
6:15 AM 19.2 °F 11.3 °F 17.2 °F 92% 30.01 in 7.0 mi NW 5.8 mph - N/A   Clear
6:35 AM 19.4 °F 12.8 °F 17.4 °F 92% 30.02 in 7.0 mi NNW 4.6 mph - N/A   Clear
6:54 AM 18.5 °F 10.4 °F 16.7 °F 93% 30.02 in 7.0 mi NNW 5.8 mph - N/A   Clear
7:15 AM 22.1 °F 13.7 °F 19.4 °F 89% 30.02 in 10.0 mi North 6.9 mph - N/A   Clear
7:35 AM 22.1 °F 12.8 °F 19.4 °F 89% 30.02 in 10.0 mi NNW 8.1 mph - N/A   Clear
7:55 AM 21.6 °F 12.1 °F 19.4 °F 91% 30.02 in 7.0 mi North 8.1 mph - N/A   Clear
8:15 AM 22.1 °F 12.0 °F 20.1 °F 92% 30.03 in 7.0 mi North 9.2 mph - N/A   Clear
8:35 AM 22.3 °F 11.5 °F 20.5 °F 93% 30.03 in 7.0 mi North 10.4 mph - N/A   Clear
8:55 AM 23.7 °F 12.6 °F 21.4 °F 91% 30.03 in 7.0 mi North 11.5 mph - N/A   Clear
9:15 AM 24.6 °F 14.4 °F 22.1 °F 90% 30.03 in 7.0 mi North 10.4 mph - N/A   Clear
9:35 AM 25.3 °F 15.3 °F 22.3 °F 88% 30.03 in 7.0 mi North 10.4 mph - N/A   Clear
10:15 AM 28.4 °F 24.6 °F 23.4 °F 81% 30.05 in 7.0 mi NNE 3.5 mph - N/A   Clear
10:34 AM 29.8 °F 23.0 °F 23.2 °F 76% 30.04 in 10.0 mi NE 6.9 mph - N/A   Clear
10:55 AM 31.1 °F 23.1 °F 23.2 °F 72% 30.03 in 10.0 mi NE 9.2 mph - N/A   Clear
11:15 AM 32.0 °F 27.5 °F 23.7 °F 71% 30.03 in 10.0 mi NNE 4.6 mph - N/A   Clear
11:35 AM 34.3 °F 27.7 °F 23.9 °F 66% 30.02 in 10.0 mi NE 8.1 mph - N/A   Clear
11:55 AM 34.7 °F 28.8 °F 23.7 °F 64% 30.02 in 10.0 mi NE 6.9 mph - N/A   Clear
12:15 PM 35.8 °F 29.4 °F 23.7 °F 62% 30.02 in 10.0 mi NNE 8.1 mph - N/A   Clear
12:35 PM 36.5 °F 31.8 °F 23.7 °F 60% 30.02 in 10.0 mi NE 5.8 mph - N/A   Clear
12:55 PM 36.9 °F 31.4 °F 23.7 °F 59% 30.00 in 10.0 mi NE 6.9 mph - N/A   Clear
1:15 PM 37.0 °F 31.6 °F 23.9 °F 59% 30.00 in 10.0 mi NE 6.9 mph - N/A   Clear
1:35 PM 37.6 °F 31.6 °F 23.9 °F 58% 29.99 in 10.0 mi NE 8.1 mph - N/A   Clear
1:55 PM 37.2 °F 31.9 °F 23.7 °F 58% 29.99 in 10.0 mi NNE 6.9 mph - N/A   Clear
2:14 PM 37.2 °F 31.2 °F 23.7 °F 58% 29.98 in 10.0 mi NNE 8.1 mph - N/A   Clear
2:35 PM 37.0 °F 30.4 °F 23.7 °F 59% 29.98 in 10.0 mi NNE 9.2 mph - N/A   Clear
2:55 PM 37.0 °F 29.8 °F 23.7 °F 59% 29.98 in 10.0 mi NNE 10.4 mph - N/A   Clear
3:15 PM 37.0 °F 29.8 °F 23.9 °F 59% 29.97 in 10.0 mi NE 10.4 mph - N/A   Clear
3:35 PM 37.4 °F 30.8 °F 23.9 °F 58% 29.95 in 10.0 mi ENE 9.2 mph - N/A   Clear
3:55 PM 38.1 °F 32.9 °F 24.3 °F 57% 29.97 in 10.0 mi NE 6.9 mph - N/A   Clear
4:15 PM 38.3 °F 30.9 °F 24.3 °F 57% 29.96 in 10.0 mi ENE 11.5 mph - N/A   Clear
4:35 PM 36.7 °F 29.9 °F 23.9 °F 60% 29.97 in 10.0 mi ENE 9.2 mph - N/A   Clear
4:55 PM 34.9 °F 28.3 °F 23.5 °F 63% 29.98 in 10.0 mi ENE 8.1 mph - N/A   Clear
5:15 PM 34.7 °F 28.1 °F 23.9 °F 65% 29.98 in 10.0 mi ENE 8.1 mph - N/A   Clear
5:34 PM 34.7 °F 28.8 °F 23.9 °F 65% 29.99 in 10.0 mi NE 6.9 mph - N/A   Clear
5:55 PM 34.7 °F 28.1 °F 24.4 °F 66% 29.99 in 10.0 mi ENE 8.1 mph - N/A   Clear
6:15 PM 34.5 °F 28.6 °F 24.4 °F 67% 30.00 in 10.0 mi NE 6.9 mph - N/A   Clear
6:35 PM 34.0 °F 27.2 °F 24.4 °F 68% 30.01 in 10.0 mi NE 8.1 mph - N/A   Clear
6:55 PM 34.2 °F 27.5 °F 24.6 °F 68% 30.00 in 10.0 mi ENE 8.1 mph - N/A   Clear
7:15 PM 33.6 °F 25.6 °F 24.4 °F 69% 30.00 in 10.0 mi ENE 10.4 mph - N/A   Clear
7:35 PM 33.3 °F 23.7 °F 24.3 °F 70% 29.98 in 10.0 mi ENE 13.8 mph - N/A   Mostly Cloudy
7:55 PM 33.3 °F 25.1 °F 24.3 °F 70% 29.98 in 10.0 mi ENE 10.4 mph - N/A   Overcast
8:15 PM 33.4 °F 23.9 °F 24.4 °F 70% 30.00 in 10.0 mi ENE 13.8 mph - N/A   Overcast
8:35 PM 33.3 °F 25.1 °F 24.4 °F 70% 29.99 in 10.0 mi ENE 10.4 mph - N/A   Overcast
8:55 PM 33.1 °F 26.9 °F 24.6 °F 71% 30.01 in 10.0 mi ENE 6.9 mph - N/A   Overcast
9:15 PM 32.9 °F 26.7 °F 24.6 °F 72% 30.02 in 10.0 mi ENE 6.9 mph - N/A   Overcast
9:35 PM 32.2 °F 26.7 °F 24.3 °F 73% 30.02 in 10.0 mi NNE 5.8 mph - N/A   Mostly Cloudy
9:54 PM 32.0 °F 25.6 °F 24.3 °F 73% 30.02 in 10.0 mi NE 6.9 mph - N/A   Scattered Clouds
10:15 PM 32.0 °F 24.2 °F 24.1 °F 73% 30.00 in 10.0 mi NE 9.2 mph - N/A   Mostly Cloudy
10:55 PM 31.1 °F 23.1 °F 23.9 °F 75% 30.00 in 10.0 mi NE 9.2 mph - N/A   Scattered Clouds
11:15 PM 30.6 °F 23.8 °F 23.9 °F 76% 30.01 in 10.0 mi NNE 6.9 mph - N/A   Clear
11:35 PM 30.0 °F 25.2 °F 23.9 °F 78% 30.01 in 10.0 mi NNE 4.6 mph - N/A   Clear
11:55 PM 29.7 °F 22.8 °F 24.3 °F 80% 30.01 in 7.0 mi NNE 6.9 mph - N/A   Clear